Flag for Norway Weather past 2 weeks in Tromsø, Norway

Now
36 °F

Overcast.


Feels Like: 29 °F
Forecast: 31 / 36 °F
Wind: 10 mph from South

Location: Tromso / Langnes

Current Time: Jan 26, 2015 at 2:18:09 AM

Latest Report: Jan 26, 2015 at 1:00 AM


Visibility: 31 mi

Pressure: 29.35 "Hg

Humidity: 53%

Dew point: 21 °F

Location of TromsøLocation

Historic Weather in Tromsø — Graph

°F

Tromsø temperature yesterday

Maximum temperature yesterday: 36 °F (at 6:00 PM)
Minimum temperature yesterday: 24 °F (at 12:00 AM)
Average temperature yesterday: 33 °F

Past Weeks' High & Low Weather Summary

 TemperatureHumidityPressure
High36 °F (Jan 26, 1:00 AM)96% (Jan 25, 1:00 AM)30.38 "Hg (Jan 25, 1:00 AM)
Low6 °F (Jan 12, 6:00 AM)43% (Jan 12, 7:00 PM)28.70 "Hg (Jan 13, 6:00 PM)
Average20 °F75%29.57 "Hg
* Reported Jan 11 1:00 AM — Jan 26 1:00 AM, Tromsø, Weather by CustomWeather, © 2014

Note: Actual official high and low records may vary slightly from our data, if they occured in-between our weather recording intervals... More about our weather records

Advertising

Tromsø weather history for previous 24 hours

 ConditionsComfort  
Time TempWeatherWind HumidityBarometerVisibility
1:00 AM
Jan 26
36 °FOvercast.10 mph53%29.35 "Hg31 mi
12:00 AM35 °FPassing clouds.6 mph62%29.41 "Hg31 mi
11:00 PM
Jan 25
35 °FOvercast.6 mph62%29.47 "Hg31 mi
9:00 PM35 °FPassing clouds.5 mph69%29.59 "Hg28 mi
8:00 PM35 °FClear.5 mph72%29.63 "Hg31 mi
7:00 PM36 °FClear.8 mph72%29.66 "Hg31 mi
6:00 PM36 °FPassing clouds.8 mph75%29.68 "Hg28 mi
5:00 PM36 °FOvercast.8 mph79%29.70 "Hg22 mi
4:00 PM36 °FOvercast.10 mph81%29.71 "Hg19 mi
3:00 PM36 °FOvercast.10 mph85%29.71 "Hg17 mi
2:00 PM36 °FOvercast.9 mph83%29.69 "Hg25 mi
1:00 PM36 °FOvercast.9 mph81%29.69 "Hg31 mi
12:00 PM36 °FOvercast.8 mph82%29.69 "Hg31 mi
11:00 AM35 °FHeavy rain. Overcast.8 mph86%29.68 "Hg7 mi
10:00 AM34 °FHeavy rain. Overcast.9 mph86%29.67 "Hg22 mi
9:00 AM33 °FOvercast.9 mph89%29.65 "Hg31 mi
8:00 AM33 °FSnow flurries. Dense fog.9 mph91%29.62 "Hg2 mi
7:00 AM32 °FSnow flurries. Overcast.8 mph88%29.61 "Hg5 mi
6:00 AM32 °FOvercast.9 mph86%29.59 "Hg16 mi
5:00 AM31 °FSnow flurries. Overcast.9 mph90%29.57 "Hg6 mi
3:00 AM27 °FSnow flurries. Overcast.10 mph94%29.55 "Hg10 mi
2:00 AM25 °FLight snow. Ice fog.9 mph96%29.54 "Hg1 mi
Weather by CustomWeather, © 2014

See weather overviewHow to use our weather pages